Regional Weather Roundup
Issued by NWS Boston, MA

Current Version | Previous Version | Text Only | Print | Product List | Glossary Off
Versions: 1 2 3 4 5 6 7 8 9 10 11 12 13 14 15 16 17 18 19 20 21 22 23 24 25 26 27 28 29 30 31 32 33 34 35 36 37 38 39 40 41 42 43 44 45 46 47 48 49 50
000 ASUS41 KBOX 192110 RWRBOX REGIONAL WEATHER ROUNDUP NATIONAL WEATHER SERVICE BOSTON/NORTON MA 500 PM EDT FRI OCT 19 2018 NOTE: "FAIR" INDICATES FEW OR NO CLOUDS BELOW 12,000 FEET WITH NO SIGNIFICANT WEATHER AND/OR OBSTRUCTIONS TO VISIBILITY. MAZALL-192200- EASTERN MASSACHUSETTS CITY SKY/WX TMP DP RH WIND PRES REMARKS BOSTON FAIR 62 32 32 SW18 29.97F BEVERLY FAIR 58 34 40 SW8 29.96F LAWRENCE FAIR 61 36 39 SW9 29.98F BEDFORD FAIR 61 34 36 SW14G21 29.96F BLUE HILL N/A 57 34 41 SW18G26 29.98F NORWOOD FAIR 62 36 37 S10 29.99F MARSHFIELD FAIR 59 43 55 SW9G20 29.99F PLYMOUTH FAIR 58 39 49 SW12G23 30.02F TAUNTON FAIR 58 40 51 SW9 30.02F NEW BEDFORD FAIR 57 41 55 SW10 30.03F $$ MAZALL-192200- CAPE COD AND THE ISLANDS CITY SKY/WX TMP DP RH WIND PRES REMARKS FALMOUTH FAIR 57 45 62 SW20G30 30.04F HYANNIS FAIR 58 45 62 SW21G30 30.01F CHATHAM FAIR 57 45 64 SW13G24 30.04F PROVINCETOWN FAIR 56 43 61 SW20 30.01F NANTUCKET FAIR 57 45 64 SW22G32 30.07F MARTHAS VNYRD FAIR 57 43 59 SW18G30 30.05F $$ MAZALL-192200- CENTRAL AND WESTERN MASSACHUSETTS CITY SKY/WX TMP DP RH WIND PRES REMARKS WORCESTER FAIR 55 35 47 SW13G21 29.99F FITCHBURG FAIR 58 33 39 SW7G18 29.98F ORANGE FAIR 59 33 37 S13 29.98F SPRINGFIELD PTSUNNY 56 37 49 S9 29.97F WESTFIELD FAIR 58 38 47 S9 29.97F NORTH ADAMS FAIR 58 37 45 W7 29.96F PITTSFIELD FAIR 56 36 47 S10 29.96F $$ RIZALL-192200- RHODE ISLAND CITY SKY/WX TMP DP RH WIND PRES REMARKS PROVIDENCE MOCLDY 57 38 48 SW14 30.03F NEWPORT FAIR 56 41 57 SW7G20 30.04F SMITHFIELD FAIR 56 39 53 SW8 30.01F WESTERLY FAIR 58 40 51 SW9G18 30.06F $$ CTZALL-192200- CONNECTICUT CITY SKY/WX TMP DP RH WIND PRES REMARKS BRADLEY INTL PTSUNNY 60 34 37 S14 29.99F HARTFORD FAIR 57 38 48 S12 30.01F BRIDGEPORT FAIR 60 37 42 SW14 30.06F DANBURY FAIR 55 35 47 SW7 30.05F GROTON FAIR 57 41 55 SW18G25 30.05F NEW HAVEN FAIR 60 39 45 SW9 30.05F CHESTER FAIR 57 41 54 SW7 30.05F MERIDEN FAIR 57 36 45 S9 30.04F WILLIMANTIC FAIR 58 38 47 SW9 30.02F OXFORD FAIR 54 37 52 SW8 30.04F $$ MEZ002-015-021-024-NHZ003-005-008-011-012-014-VTZ005-008-192200- NORTHERN NEW ENGLAND CITY SKY/WX TMP DP RH WIND PRES REMARKS PORTLAND ME FAIR 55 40 56 S5 29.93F BANGOR ME FAIR 50 38 63 S12 29.92S CONCORD NH FAIR 60 38 43 VRB6 29.94S MANCHESTER NH FAIR 60 36 40 SW7 29.94S NASHUA NH FAIR 58 38 47 CALM 29.96F PORTSMOUTH NH PTCLDY 59 36 42 SW7 29.93F JAFFREY NH FAIR 56 37 49 S10G21 29.96F KEENE NH FAIR 60 37 42 SW8 29.95F BURLINGTON VT FAIR 60 38 43 S18G25 29.86S MT. WASHINGTON PTCLDY 34 25 69 W48 N/A WCI 17 $$ NYZ052-076-192200- EASTERN NEW YORK CITY SKY/WX TMP DP RH WIND PRES REMARKS ALBANY FAIR 59 37 44 S13G20 29.96F NEW YORK CITY PTSUNNY 61 31 32 SW15 30.06F $$ ANZALL-192200- MARINE OBSERVATIONS STATION/POSITION TIME TEMP WIND PRES VSBY WAVE AIR SEA DIR/SP/G HT/PER (UTC) (F) (DEG/KT/KT) (MB) (MI) (FT/S) BOSTON BUOY 2050 59 57 190/ 14/ 17 1014.5F 2/ 3 BUZZARDS BAY 2000 57 220/ 28/ 32 1017.9F NANTUCKET SOUND 2050 58 60 240/ 21/ 27 1017.4F 3/ 4 MASS BAY-STELLWA 2004 57 56 240/ 17/ 21 1014.3F 1 7/8 3/ 4 ISLE OF SHOALS 2000 57 230/ 18/ 19 1014.1F S OF BLOCK IS 2043 63 N/A 7/ 5 $$ ......................KEY......................... SKY/WX - SKY CONDITION/PRESENT WEATHER TMP - TEMPERATURE IN FAHRENHEIT DWPT - DEWPOINT IN FAHRENHEIT RH - RELATIVE HUMIDITY IN PERCENT WIND - DIRECTION AND SPEED IN MPH PRES - MEAN SEA LEVEL PRESSURE IN INCHES OF HG WCI - WIND CHILL INDEX VSB - VISIBILITY IN MILES HX - HEAT INDEX TC - TEMPERATURE IN CELSIUS VRB - VARIABLE WIND DIRECTION N/A - NOT AVAILABLE

USA.gov is the U.S. government's official web portal to all federal, state and local government web resources and services.